Location: Newark
(53.3333°N, 83.7500°E)
Time: 19:41:42
(UTC+00:00)

N. Korean satellite - Pass Details

Date: 23 September 2020
Orbit: 452 x 505 km, 97.2° (Epoch: 28 October)

Event Time Altitude Azimuth Distance (km) Brightness Sun altitude
Rises 23:25:16 0° 21° (NNE) 2,613 10.7 -8.1°
Reaches altitude 10° 23:27:35 10° 34° (NNE) 1,716 10.0 -7.8°
Maximum altitude 23:30:49 28° 94° (E) 960 9.1 -7.3°
Drops below altitude 10° 23:33:59 10° 155° (SSE) 1,680 9.5 -6.9°
Sets 23:36:14 0° 168° (SSE) 2,546 10.3 -6.5°
